GW6974 Weather Reports


time (UTC)temp
F
wind
direction
speed
knots
gust
knots
rain 1hr
in
rain 24hr
in
rain mn
in
humidity
%
barometer
mb
20260504221004 76 168 1.7 7.0 0.00 0.00 0.00 34 1015.3
20260504220510 76 148 2.6 6.1 0.00 0.00 0.00 33 1015.3
20260504220018 76 188 2.6 6.1 0.00 0.00 0.00 36 1015.3
20260504215506 76 236 1.7 4.3 0.00 0.00 0.00 37 1015.3
20260504215006 76 207 1.7 4.3 0.00 0.00 0.00 36 1015.2
20260504214526 76 188 1.7 7.8 0.00 0.00 0.00 36 1015.1
20260504214008 76 113 1.7 7.8 0.00 0.00 0.00 34 1015.1
20260504213514 76 205 2.6 6.1 0.00 0.00 0.00 35 1015.1
20260504213005 76 141 2.6 6.1 0.00 0.00 0.00 1015.3
20260504212504 76 180 1.7 9.6 0.00 0.00 0.00 1015.2
20260504212008 76 191 3.5 9.6 0.00 0.00 0.00 1015.2
20260504211519 76 181 0.9 5.2 0.00 0.00 0.00 33 1015.2
20260504211005 76 148 0.9 7.0 0.00 0.00 0.00 33 1015.2
20260504210504 77 135 3.5 9.6 0.00 0.00 0.00 33 1015.2
20260504210032 76 133 3.5 9.6 0.00 0.00 0.00 33 1015.3
20260504205505 76 266 3.5 9.6 0.00 0.00 0.00 34 1015.3
20260504205005 75 176 3.5 10.4 0.00 0.00 0.00 34 1015.3
20260504204531 76 198 5.2 10.4 0.00 0.00 0.00 35 1015.4
20260504204010 76 184 4.3 7.8 0.00 0.00 0.00 34 1015.4
20260504203513 76 273 0.9 7.8 0.00 0.00 0.00 34 1015.4
20260504203027 76 185 3.5 7.0 0.00 0.00 0.00 38 1015.5
20260504202507 76 336 1.7 8.7 0.00 0.00 0.00 36 1015.5
20260504202003 76 205 3.5 8.7 0.00 0.00 0.00 33 1015.7
20260504201508 77 233 0.9 7.8 0.00 0.00 0.00 34 1015.6
20260504201003 75 272 3.5 7.8 0.00 0.00 0.00 35 1015.8
20260504200503 76 139 1.7 7.8 0.00 0.00 0.00 32 1015.6
20260504200014 76 319 3.5 7.8 0.00 0.00 0.00 31 1015.8
20260504195504 77 217 4.3 7.8 0.00 0.00 0.00 34 1015.8
20260504195008 77 288 1.7 5.2 0.00 0.00 0.00 36 1015.9
20260504194521 77 194 1.7 5.2 0.00 0.00 0.00 1015.9
20260504194008 76 117 1.7 6.1 0.00 0.00 0.00 1015.9
20260504193506 76 129 3.5 6.1 0.00 0.00 0.00 1016.1
20260504193024 75 161 1.7 7.8 0.00 0.00 0.00 1016.2
20260504192509 75 49 2.6 7.8 0.00 0.00 0.00 35 1016.2
20260504192014 76 163 3.5 7.8 0.00 0.00 0.00 35 1016.3
20260504191531 76 106 3.5 6.1 0.00 0.00 0.00 1016.3
20260504191004 76 360 0.0 7.8 0.00 0.00 0.00 1016.3
20260504190506 75 303 3.5 7.8 0.00 0.00 0.00 1016.5
20260504190014 76 200 2.6 4.3 0.00 0.00 0.00 37 1016.6
20260504185504 76 312 0.9 7.0 0.00 0.00 0.00 37 1016.8
20260504185007 74 294 3.5 7.0 0.00 0.00 0.00 36 1016.9
20260504184518 75 190 2.6 6.1 0.00 0.00 0.00 37 1016.9
20260504184009 75 229 3.5 6.1 0.00 0.00 0.00 38 1016.9
20260504183514 76 293 0.9 4.3 0.00 0.00 0.00 40 1016.8
20260504183022 76 165 1.7 4.3 0.00 0.00 0.00 38 1017.0
20260504182511 75 156 0.9 6.1 0.00 0.00 0.00 38 1016.8
20260504182012 74 86 3.5 7.8 0.00 0.00 0.00 37 1017.0
20260504181526 74 176 2.6 7.8 0.00 0.00 0.00 39 1017.1
20260504181008 75 193 0.9 5.2 0.00 0.00 0.00 39 1017.1
20260504180514 76 57 1.7 4.3 0.00 0.00 0.00 36 1017.2
20260504180028 74 168 0.9 5.2 0.00 0.00 0.00 38 1017.4
20260504175503 74 252 2.6 5.2 0.00 0.00 0.00 39 1017.4
20260504175003 74 240 1.7 7.8 0.00 0.00 0.00 39 1017.6
20260504174518 73 206 3.5 7.8 0.00 0.00 0.00 39 1017.6
20260504174007 74 212 2.6 5.2 0.00 0.00 0.00 39 1017.7
20260504173509 73 146 0.9 6.1 0.00 0.00 0.00 38 1017.7
20260504173023 73 182 1.7 6.1 0.00 0.00 0.00 39 1017.9
20260504172509 73 141 2.6 6.1 0.00 0.00 0.00 41 1017.8
20260504172012 73 211 0.9 3.5 0.00 0.00 0.00 40 1017.9
20260504171526 74 25 1.7 3.5 0.00 0.00 0.00 40 1017.9
20260504171008 73 277 1.7 7.0 0.00 0.00 0.00 41 1018.0
20260504170517 72 222 2.6 7.0 0.00 0.00 0.00 42 1018.0
20260504151006 68 188 1.7 7.0 0.00 0.00 0.00 48 1018.5
20260504150511 67 181 3.5 7.0 0.00 0.00 0.00 47 1018.6
20260504141002 61 65 0.0 1.7 0.00 0.00 0.00 65 1019.3
20260504140502 60 66 0.0 1.7 0.00 0.00 0.00 65 1019.4
20260504130509 50 14 0.0 1.7 0.00 0.00 0.00 86 1019.4
20260504110507 41 6 0.0 1.7 0.00 0.00 0.00 92 1018.9
20260504100507 41 10 0.0 1.7 0.00 0.00 0.00 92 1018.6
20260504081531 42 10 0.0 0.0 0.00 0.00 0.00 91 1018.6
20260504081010 43 10 0.0 0.0 0.00 0.00 0.00 91 1018.6
20260504080503 43 10 0.0 1.7 0.00 0.00 0.00 91 1018.5
20260504050511 46 354 0.0 1.7 0.00 0.00 0.00 88 1019.6
20260504045510 47 354 0.0 1.7 0.00 0.00 0.00 88 1019.5
20260504045009 47 336 0.0 0.0 0.00 0.00 0.00 88 1019.5
20260504044529 47 336 0.0 1.7 0.00 0.00 0.00 88 1019.6
20260504044005 47 336 0.0 1.7 0.00 0.00 0.00 87 1019.6
20260504043504 47 336 0.0 1.7 0.00 0.00 0.00 87 1019.6
20260504043022 47 336 0.0 1.7 0.00 0.00 0.00 87 1019.7
20260504042507 47 336 0.0 0.0 0.00 0.00 0.00 87 1019.8
20260504042006 47 336 0.0 0.0 0.00 0.00 0.00 87 1019.8
20260504041537 48 336 0.0 0.0 0.00 0.00 0.00 86 1019.8
20260504041003 48 336 0.0 0.0 0.00 0.00 0.00 85 1019.9
20260504040505 48 336 0.0 1.7 0.00 0.00 0.00 85 1019.8
20260504040015 48 336 0.0 0.0 0.00 0.00 0.00 86 1019.9
20260504035505 48 336 0.0 0.0 0.00 0.00 0.00 86 1019.9
20260504035004 48 336 0.0 0.0 0.00 0.00 0.00 86 1019.8
20260504034514 48 336 0.0 0.0 0.00 0.00 0.00 86 1019.9
20260504034004 48 336 0.0 0.0 0.00 0.00 0.00 85 1019.8
20260504033504 49 336 0.0 0.0 0.00 0.00 0.00 85 1019.9
20260504033018 49 336 0.0 1.7 0.00 0.00 0.00 84 1019.9
20260504032504 49 336 0.0 1.7 0.00 0.00 0.00 84 1020.0
20260504032007 49 336 0.0 1.7 0.00 0.00 0.00 84 1019.9
20260504031522 49 336 0.0 0.0 0.00 0.00 0.00 83 1019.9
20260504031005 50 336 0.0 1.7 0.00 0.00 0.00 82 1019.9
20260504030508 50 336 0.0 1.7 0.00 0.00 0.00 82 1019.8
20260504030005 50 336 0.0 1.7 0.00 0.00 0.00 81 1019.9
20260504025503 50 333 0.0 1.7 0.00 0.00 0.00 81 1019.9
20260504025004 51 333 0.0 1.7 0.00 0.00 0.00 82 1019.9
20260504024509 51 328 0.0 1.7 0.00 0.00 0.00 81 1019.9
20260504024005 51 328 0.0 1.7 0.00 0.00 0.00 81 1019.6
20260504023505 51 328 0.0 1.7 0.00 0.00 0.00 80 1019.6
20260504023016 51 328 0.0 1.7 0.00 0.00 0.00 78 1019.6
20260504022506 52 285 0.0 1.7 0.00 0.00 0.00 78 1019.5
20260504022006 52 283 0.0 0.0 0.00 0.00 0.00 78 1019.5
20260504021520 52 283 0.0 0.0 0.00 0.00 0.00 77 1019.5
20260504021007 53 283 0.0 0.0 0.00 0.00 0.00 76 1019.4
20260504020507 53 283 0.0 0.0 0.00 0.00 0.00 75 1019.4
20260504020034 53 283 0.0 0.0 0.00 0.00 0.00 74 1019.3
20260504015508 53 283 0.0 0.0 0.00 0.00 0.00 74 1019.2
20260504015010 54 283 0.0 0.0 0.00 0.00 0.00 73 1019.1
20260504014511 54 283 0.0 0.0 0.00 0.00 0.00 72 1019.1
20260504014006 54 283 0.0 0.0 0.00 0.00 0.00 71 1019.0
20260504013508 55 283 0.0 0.0 0.00 0.00 0.00 70 1018.9
20260504013015 55 283 0.0 1.7 0.00 0.00 0.00 69 1018.8
20260504012508 55 283 0.0 1.7 0.00 0.00 0.00 68 1018.8
20260504012004 56 283 0.0 1.7 0.00 0.00 0.00 66 1018.9
20260504011520 56 283 0.0 1.7 0.00 0.00 0.00 64 1018.9
20260504011006 56 283 0.0 0.0 0.00 0.00 0.00 61 1018.8
20260504010511 57 283 0.0 0.0 0.00 0.00 0.00 59 1018.6
20260504010022 57 283 0.0 0.0 0.00 0.00 0.00 58 1018.6
20260504005507 58 283 0.0 1.7 0.00 0.00 0.00 57 1018.6
20260504005011 58 283 0.0 1.7 0.00 0.00 0.00 55 1018.7
20260504004526 59 283 0.0 0.0 0.00 0.00 0.00 54 1018.6
20260504004009 60 283 0.0 0.0 0.00 0.00 0.00 52 1018.5
20260504003504 60 283 0.0 1.7 0.00 0.00 0.00 53 1018.4
20260504003009 60 283 0.0 1.7 0.00 0.00 0.00 53 1018.3
20260504002502 61 283 0.0 1.7 0.00 0.00 0.00 52 1018.3
20260504002006 61 283 0.0 1.7 0.00 0.00 0.00 51 1018.3
20260504001533 62 283 0.0 1.7 0.00 0.00 0.00 51 1018.3
20260504001008 62 278 0.0 1.7 0.00 0.00 0.00 52 1018.3
20260504000508 63 278 0.0 1.7 0.00 0.00 0.00 51 1018.2
20260504000022 63 278 0.0 1.7 0.00 0.00 0.00 48 1018.2
20260503235506 64 278 0.0 1.7 0.00 0.00 0.00 46 1018.2
20260503235006 65 278 0.0 1.7 0.00 0.00 0.00 43 1018.2
20260503234527 65 277 0.0 1.7 0.00 0.00 0.00 43 1018.2
20260503234009 66 250 0.0 3.5 0.00 0.00 0.00 39 1018.2
20260503233510 67 254 0.9 3.5 0.00 0.00 0.00 39 1018.2
20260503233028 67 245 0.9 2.6 0.00 0.00 0.00 39 1018.2
20260503232502 67 255 0.9 1.7 0.00 0.00 0.00 39 1018.2
20260503232003 68 253 0.9 3.5 0.00 0.00 0.00 40 1018.3
20260503231510 68 259 1.7 3.5 0.00 0.00 0.00 39 1018.3
20260503231006 68 207 0.0 3.5 0.00 0.00 0.00 39 1018.3
20260503230511 68 233 0.9 3.5 0.00 0.00 0.00 39 1018.3
20260503230033 69 231 0.9 4.3 0.00 0.00 0.00 37 1018.3
20260503225506 69 276 0.0 4.3 0.00 0.00 0.00 37 1018.3
20260503225008 69 278 1.7 5.2 0.00 0.00 0.00 36 1018.3
20260503224522 69 258 0.9 5.2 0.00 0.00 0.00 37 1018.3
20260503224007 69 30 1.7 4.3 0.00 0.00 0.00 37 1018.3
20260503223507 69 260 0.9 3.5 0.00 0.00 0.00 35 1018.3
20260503223026 70 178 0.9 3.5 0.00 0.00 0.00 36 1018.3
20260503222507 70 32 0.9 4.3 0.00 0.00 0.00 37 1018.3
20260503222011 70 174 0.9 5.2 0.00 0.00 0.00 34 1018.3
20260503221531 70 316 0.9 5.2 0.00 0.00 0.00 34 1018.3